TimeCDT,TemperatureF,Dew PointF,Humidity,Sea Level PressureIn,VisibilityMPH,Wind Direction,Wind SpeedMPH,Gust SpeedMPH,PrecipitationIn,Events,Conditions,WindDirDegrees,DateUTC
12:15 AM,66.2,53.6,64,30.13,10.0,South,11.5,20.7,N/A,,Overcast,180,2013-03-29 05:15:00
12:35 AM,66.2,53.6,64,30.13,10.0,South,12.7,19.6,N/A,,Overcast,170,2013-03-29 05:35:00
12:55 AM,64.4,53.6,68,30.14,10.0,South,10.4,17.3,N/A,,Overcast,180,2013-03-29 05:55:00
1:15 AM,64.4,53.6,68,30.14,10.0,South,11.5,18.4,N/A,,Overcast,180,2013-03-29 06:15:00
1:35 AM,64.4,53.6,68,30.14,10.0,South,9.2,18.4,N/A,,Overcast,180,2013-03-29 06:35:00
1:55 AM,64.4,53.6,68,30.14,10.0,South,11.5,18.4,N/A,,Overcast,180,2013-03-29 06:55:00
2:15 AM,64.4,53.6,68,30.13,10.0,South,13.8,20.7,N/A,,Overcast,180,2013-03-29 07:15:00
2:35 AM,64.4,53.6,68,30.13,10.0,South,12.7,20.7,N/A,,Overcast,180,2013-03-29 07:35:00
2:55 AM,62.6,53.6,72,30.13,10.0,South,13.8,20.7,N/A,,Mostly Cloudy,180,2013-03-29 07:55:00
3:15 AM,62.6,53.6,72,30.13,10.0,South,12.7,18.4,N/A,,Overcast,180,2013-03-29 08:15:00
3:35 AM,62.6,53.6,72,30.14,10.0,South,16.1,21.9,N/A,,Overcast,180,2013-03-29 08:35:00
3:55 AM,62.6,53.6,72,30.13,10.0,South,12.7,17.3,N/A,,Overcast,190,2013-03-29 08:55:00
4:15 AM,62.6,53.6,72,30.13,10.0,South,10.4,21.9,N/A,,Overcast,180,2013-03-29 09:15:00
4:35 AM,62.6,53.6,72,30.13,10.0,South,11.5,19.6,N/A,,Overcast,170,2013-03-29 09:35:00
4:55 AM,62.6,53.6,72,30.13,10.0,South,9.2,18.4,N/A,,Overcast,190,2013-03-29 09:55:00
5:15 AM,62.6,53.6,72,30.13,10.0,South,10.4,16.1,N/A,,Overcast,180,2013-03-29 10:15:00
5:35 AM,62.6,53.6,72,30.13,10.0,South,12.7,18.4,N/A,,Overcast,180,2013-03-29 10:35:00
5:49 AM,62.6,53.6,72,30.13,13.0,SSE,16.1,21.9,N/A,,Overcast,160,2013-03-29 10:49:00
5:55 AM,60.8,53.6,77,30.13,10.0,South,11.5,20.7,N/A,,Overcast,170,2013-03-29 10:55:00
6:47 AM,60.8,53.6,77,30.15,13.0,South,12.7,21.9,N/A,,Overcast,170,2013-03-29 11:47:00
7:53 AM,60.8,53.6,77,30.19,13.0,SSE,9.2,16.1,N/A,,Overcast,160,2013-03-29 12:53:00
8:47 AM,60.8,53.6,77,30.20,13.0,South,10.4,13.8,N/A,,Overcast,170,2013-03-29 13:47:00
9:47 AM,62.6,53.6,72,30.19,10.0,South,12.7,-,N/A,,Overcast,170,2013-03-29 14:47:00
10:47 AM,64.4,53.6,68,30.19,13.0,South,15.0,23.0,N/A,,Mostly Cloudy,190,2013-03-29 15:47:00
11:47 AM,68.0,53.6,60,30.17,10.0,South,16.1,24.2,N/A,,Mostly Cloudy,180,2013-03-29 16:47:00
12:47 PM,71.6,53.6,53,30.16,13.0,SSW,9.2,16.1,N/A,,Scattered Clouds,210,2013-03-29 17:47:00
1:59 PM,73.4,53.6,50,30.12,13.0,SSW,11.5,18.4,N/A,,Scattered Clouds,200,2013-03-29 18:59:00
2:47 PM,75.2,53.6,47,30.10,10.0,South,13.8,20.7,N/A,,Mostly Cloudy,180,2013-03-29 19:47:00
4:48 PM,73.4,53.6,50,30.08,13.0,South,15.0,26.5,N/A,,Overcast,180,2013-03-29 21:48:00
5:47 PM,71.6,55.4,57,30.08,13.0,South,15.0,20.7,N/A,,Overcast,170,2013-03-29 22:47:00
6:47 PM,71.6,55.4,57,30.07,13.0,SSE,17.3,-,N/A,,Mostly Cloudy,150,2013-03-29 23:47:00
7:47 PM,71.6,55.4,57,30.08,13.0,SE,16.1,-,N/A,,Overcast,140,2013-03-30 00:47:00
8:47 PM,69.8,53.6,56,30.08,13.0,SSE,15.0,27.6,N/A,,Overcast,150,2013-03-30 01:47:00
9:47 PM,69.8,55.4,60,30.09,13.0,SSE,15.0,21.9,N/A,,Mostly Cloudy,150,2013-03-30 02:47:00
10:15 PM,69.8,53.6,56,30.09,10.0,SSE,12.7,17.3,N/A,,Scattered Clouds,160,2013-03-30 03:15:00
10:35 PM,69.8,53.6,56,30.08,10.0,SSE,12.7,19.6,N/A,,Scattered Clouds,160,2013-03-30 03:35:00
10:55 PM,69.8,53.6,56,30.07,10.0,SSE,15.0,18.4,N/A,,Scattered Clouds,150,2013-03-30 03:55:00
11:15 PM,69.8,53.6,56,30.05,10.0,SE,17.3,20.7,N/A,,Scattered Clouds,140,2013-03-30 04:15:00
11:35 PM,68.0,53.6,60,30.04,10.0,SSE,13.8,19.6,N/A,,Clear,150,2013-03-30 04:35:00
11:55 PM,68.0,53.6,60,30.02,10.0,SE,16.1,24.2,N/A,,Scattered Clouds,140,2013-03-30 04:55:00